SCP
1 1 1 1 2 2 2 2 1 1 1 1 1 1 1 1 1 1 1 0 0 1 1 1 1 1 1 1 1 1 1 0 0 0 1 1 0 1 1 1 1 0 0
1 1 1 1 2 2 2 1 1 1 1 1 0 0 0 0 1 1 1 0 0 1 1 1 1 1 1 1 1 1 1 0 1 1 1 1 1 1 1 1 1 1 1
1 1 1 2 2 2 2 1 1 1 1 0 0 0 0 0 0 1 1 1 1 1 1 1 1 1 1 1 1 1 1 1 1 1 1 1 1 1 1 1 1 1 1
2 2 2 2 2 2 1 1 1 1 1 0 0 0 0 0 0 1 1 1 1 1 0 0 1 1 1 1 1 1 1 1 1 1 1 1 2 2 2 2 2 1 1
2 2 2 2 2 1 1 1 1 1 1 0 0 0 0 0 0 0 0 1 1 1 0 0 1 1 1 1 1 1 1 1 1 1 1 1 2 2 2 2 2 1 1
2 2 2 2 1 1 1 1 1 1 1 0 0 0 0 0 0 0 0 0 0 0 0 0 1 1 1 1 1 1 1 1 1 1 1 1 1 1 1 2 2 1 1
2 2 2 1 1 1 1 1 1 1 1 0 0 0 0 0 0 0 0 0 0 0 0 0 1 1 1 1 1 1 1 1 1 1 1 1 1 1 1 1 1 1 1
2 2 1 1 1 1 1 1 1 1 1 1 0 0 0 0 0 0 0 0 0 0 0 0 1 1 1 1 1 1 1 1 1 1 1 1 1 1 1 1 1 1 1
2 1 1 1 1 1 1 2 2 2 2 1 1 0 0 0 0 0 0 0 0 0 0 0 0 0 1 1 1 1 1 1 1 2 2 2 2 2 1 1 1 1 1
1 1 1 1 1 2 2 2 3 3 2 1 1 1 1 0 0 0 0 0 0 0 0 0 0 0 0 1 1 1 1 1 1 2 3 3 3 2 2 1 2 2 2
2 1 1 1 1 2 2 2 3 3 2 1 1 1 1 1 0 0 0 0 0 0 0 0 0 0 0 1 1 1 1 1 1 1 2 3 3 2 2 2 2 2 3
2 2 1 1 1 1 2 2 2 3 2 2 1 1 1 1 1 0 0 0 0 0 0 0 0 0 0 0 0 0 0 0 0 1 1 2 2 1 1 2 2 2 3
3 3 2 1 1 1 1 2 2 2 2 2 1 1 1 1 1 0 0 0 0 0 0 0 0 0 0 0 0 0 0 0 0 0 1 1 1 1 1 1 1 2 2
4 4 3 2 2 1 1 1 2 2 2 1 1 1 1 1 1 1 1 0 0 0 0 0 0 0 0 0 0 0 1 1 0 0 0 0 0 0 0 1 1 1 1
5 5 4 3 2 2 1 1 1 1 1 1 1 1 1 1 1 1 1 1 1 1 0 0 0 0 0 0 0 1 1 1 0 0 0 0 0 0 0 0 0 1 1
6 6 5 4 3 2 2 2 1 1 1 1 1 1 1 1 1 1 1 1 1 1 1 0 0 0 0 0 0 1 1 1 1 1 0 0 0 0 0 0 0 0 0
6 6 6 5 4 3 2 2 1 1 1 1 1 1 1 1 1 1 1 1 1 2 1 1 0 0 0 1 1 1 1 1 1 1 1 0 0 0 0 0 0 0 0
6 6 6 5 4 3 2 2 1 1 1 1 1 1 1 1 1 1 0 1 1 1 1 1 0 1 1 1 1 1 1 1 1 1 1 0 0 0 0 0 0 0 0
5 5 5 4 3 3 2 1 1 1 1 1 1 0 0 0 0 0 0 0 1 1 1 1 1 1 1 1 1 1 1 1 1 0 0 0 0 0 0 0 0 0 0
4 3 3 2 3 3 2 1 1 1 1 0 1 0 0 0 0 0 0 0 1 1 1 1 1 1 1 1 1 1 1 0 0 0 0 0 0 0 0 0 0 0 0
2 2 1 1 2 2 1 1 1 1 1 1 1 1 1 0 0 0 0 0 1 1 1 1 1 1 1 1 1 1 1 1 0 0 0 0 0 0 0 1 1 0 0
1 1 1 1 1 1 1 0 0 1 1 1 1 1 1 0 0 0 0 0 0 0 0 1 1 1 1 1 1 1 1 1 0 1 0 0 0 0 0 1 1 0 0
1 1 1 1 1 0 0 0 0 0 0 1 1 1 1 1 0 0 0 0 0 0 0 1 1 1 0 1 1 1 1 1 1 0 1 0 0 0 0 0 0 0 0
1 1 1 1 1 0 0 0 0 0 0 0 1 1 1 1 0 0 0 0 0 0 0 0 0 0 0 0 1 1 1 1 1 1 1 1 0 0 0 0 0 0 0
0 1 1 1 1 1 0 0 0 0 0 0 0 0 1 1 0 0 0 0 0 0 0 0 0 0 0 0 0 0 0 0 1 1 1 1 0 0 0 0 0 0 0
0 1 1 1 1 1 1 0 0 0 0 0 0 0 0 0 0 0 0 0 0 0 0 0 0 0 0 0 0 0 0 0 1 1 1 1 0 0 0 0 1 0 0
Wind_Speed
1 1 0 1 1 1 1 1 1 1 2 2 1 1 1 1 1 1 1 2 3 4 4 5 6 6 6 7 7 7 7 7 7 7 7 8 8 7 7 7 7 8 7
2 1 1 1 1 1 1 1 1 1 1 1 1 1 0 1 1 1 0 0 1 2 3 4 5 5 6 7 7 6 6 6 7 7 7 8 8 8 8 8 8 8 8
2 2 1 1 1 1 2 2 2 2 1 1 1 1 0 1 1 1 0 0 1 1 2 3 4 5 5 6 7 7 7 6 7 7 6 7 8 8 9 8 8 8 8
2 2 2 1 1 1 1 1 1 2 1 1 1 1 1 1 0 0 0 0 0 1 1 2 3 4 4 5 6 6 7 7 7 7 7 7 7 7 8 8 8 8 8
3 2 2 1 2 2 1 1 1 1 1 1 1 1 1 1 1 1 0 0 0 1 1 1 2 2 3 4 5 6 6 7 7 7 7 7 8 8 7 7 8 9 9
2 2 2 1 2 2 1 1 2 1 1 1 1 2 1 1 0 0 1 0 0 1 1 1 1 2 3 3 4 5 6 7 7 7 8 8 8 8 8 8 9 9 9
2 2 2 1 2 2 2 2 2 2 1 1 1 1 2 1 0 0 0 0 1 1 1 1 1 1 1 3 4 4 5 6 7 7 7 7 7 7 8 9 10 10 10
1 2 2 2 2 2 2 2 2 2 1 1 1 1 1 2 1 1 0 1 1 1 1 2 2 2 2 1 2 5 5 5 5 6 6 6 6 6 7 8 10 10 10
1 1 2 2 2 2 2 2 2 2 1 1 1 2 1 1 2 2 1 1 1 1 1 1 2 2 2 2 3 4 5 5 6 6 5 5 5 6 7 8 8 8 9
1 2 2 2 2 2 2 2 2 2 2 1 0 0 1 1 1 1 2 1 1 1 1 1 2 2 2 2 2 3 4 5 5 5 4 4 4 4 6 7 8 8 9
1 1 2 2 2 2 2 2 2 2 2 2 1 1 1 0 1 1 2 2 2 1 1 2 2 2 1 2 2 2 3 3 2 3 3 3 3 3 4 5 6 7 8
0 0 1 1 2 2 2 2 2 2 2 2 2 2 2 1 1 2 1 1 2 2 1 1 1 2 1 1 2 2 2 2 2 2 2 2 2 3 3 4 5 6 7
0 1 1 1 1 2 2 2 2 2 2 2 2 2 2 2 2 2 2 1 1 1 2 1 1 1 1 1 1 2 1 1 1 1 1 1 1 2 2 2 3 4 5
2 1 1 1 1 2 2 2 2 2 1 2 2 2 1 1 2 2 2 2 0 1 1 2 1 1 1 1 2 1 1 1 1 1 0 1 1 1 1 2 2 3 3
2 2 1 1 1 1 1 2 1 1 1 1 1 1 1 1 1 1 1 2 2 1 1 2 1 2 2 1 2 1 1 2 2 1 0 0 1 1 1 1 2 2 2
2 2 2 1 1 0 1 1 1 1 2 1 1 1 1 1 1 1 1 1 2 2 1 1 1 2 2 1 2 1 1 2 2 2 1 1 1 0 1 1 1 1 1
2 3 2 2 1 1 1 1 2 2 2 1 1 2 1 1 1 1 1 1 1 2 2 1 1 1 1 2 2 1 1 1 2 2 2 1 1 1 1 1 2 1 1
2 2 2 2 1 1 1 1 1 2 2 2 1 2 1 1 1 1 1 1 1 1 2 1 1 1 1 1 2 2 2 2 2 3 2 1 1 1 2 2 2 2 1
2 2 2 2 2 2 2 1 2 2 1 1 1 2 2 2 1 1 1 1 1 1 1 1 1 0 1 1 1 2 2 2 2 2 2 2 2 2 2 1 1 1 1
2 2 2 2 2 2 2 1 1 2 1 1 1 2 2 2 3 2 2 1 1 1 1 1 1 0 1 1 1 1 2 2 2 2 3 3 3 3 2 2 1 0 0
2 1 1 1 1 2 2 2 2 2 2 1 1 1 2 2 3 2 2 2 2 1 1 1 1 0 0 0 0 0 0 1 1 1 1 2 2 2 2 2 1 0 0
1 1 1 1 1 1 2 3 2 2 2 2 2 1 1 2 2 2 2 3 3 3 3 2 2 2 2 2 1 1 0 0 1 1 1 2 2 2 2 2 2 2 2
1 1 1 1 2 2 3 4 3 2 2 2 2 2 2 1 1 1 1 1 2 3 4 4 4 4 4 3 3 2 2 1 1 1 0 1 1 2 2 2 3 3 3
2 2 2 2 2 3 3 4 3 2 2 2 2 2 2 2 1 1 1 1 1 2 3 4 4 4 4 4 4 3 2 1 1 1 1 1 1 2 2 2 3 2 2
2 2 2 2 2 3 3 3 2 1 1 2 2 2 2 2 1 1 2 1 2 2 2 2 3 3 3 3 4 3 2 2 1 1 1 1 1 2 2 2 1 1 1
2 2 1 2 2 2 3 3 3 2 2 2 1 2 2 2 2 2 2 2 3 3 2 1 1 1 1 2 4 4 4 3 1 2 1 2 1 1 1 1 1 2 1
Wind_Direction
145 121 90 84 83 86 97 95 85 76 62 58 86 124 129 158 182 182 186 193 204 213 210 204 197 191 187 186 186 188 187 185 188 190 192 192 192 192 187 186 186 187 183
162 151 137 106 89 94 102 108 100 84 69 62 46 51 140 182 182 169 177 204 230 229 215 206 203 204 205 200 196 196 197 196 197 202 203 199 196 196 195 193 193 191 188
164 155 141 126 104 99 98 91 81 76 75 57 39 31 86 145 175 184 186 230 265 261 241 220 212 217 221 213 208 204 205 205 205 206 209 207 204 202 201 200 199 195 190
153 144 143 144 127 110 106 104 92 87 77 59 37 26 27 28 15 161 170 211 245 257 265 247 222 221 225 224 220 216 211 211 214 216 216 216 213 211 208 206 202 198 194
150 144 153 154 134 124 124 137 99 114 112 86 72 59 37 43 16 23 52 306 272 260 252 249 242 233 238 239 235 232 226 223 223 222 220 218 217 213 210 208 203 198 197
149 142 148 148 140 134 134 128 116 99 105 107 79 56 37 14 33 2 300 284 264 249 250 254 255 257 259 262 252 250 245 239 235 230 228 225 222 215 211 210 203 200 203
151 141 145 141 144 149 154 144 129 109 81 72 71 30 8 357 353 305 290 269 273 261 239 238 234 245 269 278 269 257 255 248 248 243 237 232 226 219 215 212 207 204 205
167 153 153 155 152 138 124 131 133 125 93 83 110 92 360 346 338 325 272 243 262 273 255 248 238 236 251 261 273 261 262 260 263 254 245 235 226 220 213 210 208 206 206
149 145 161 158 151 151 164 169 155 148 143 91 95 135 140 249 317 334 320 302 276 257 268 269 255 250 247 252 262 263 264 273 269 256 247 239 233 219 209 209 204 205 209
146 158 158 162 158 155 165 184 163 152 143 155 125 104 144 171 176 321 332 338 326 296 286 281 274 258 248 248 252 261 270 282 266 255 244 241 241 221 210 206 208 210 215
86 137 146 152 167 170 174 177 163 158 162 168 176 163 144 111 153 176 297 327 336 314 301 284 286 283 264 248 255 270 283 293 265 237 237 238 237 220 212 212 214 214 216
32 51 130 154 172 174 182 190 188 181 186 181 182 177 170 171 187 173 217 279 306 311 308 303 290 284 277 261 263 285 275 284 284 249 239 249 236 218 214 218 220 221 222
221 246 152 185 191 190 187 178 176 198 197 193 196 196 194 200 180 166 175 226 286 313 320 317 296 290 290 298 292 301 295 285 296 258 229 228 226 228 226 233 232 230 232
214 208 171 195 205 193 186 178 179 199 185 198 203 192 187 204 188 184 177 169 218 333 334 310 317 323 317 330 328 320 338 4 36 21 167 190 213 227 229 248 256 254 244
196 168 167 170 218 206 192 172 175 191 162 184 190 172 165 177 174 186 184 182 176 225 296 301 311 337 332 335 355 5 23 35 53 47 82 137 118 77 24 308 283 278 260
176 158 155 166 189 169 159 156 151 155 142 164 154 131 128 132 130 139 175 183 180 182 226 280 279 318 335 4 26 22 38 56 60 46 44 67 83 76 5 332 301 275 264
174 168 168 174 190 181 142 152 167 160 151 152 141 136 136 139 133 132 148 155 171 173 203 262 266 322 348 10 18 16 35 30 38 37 40 52 26 346 325 307 291 281 273
174 178 171 176 203 199 176 164 181 176 174 163 163 143 159 145 133 146 155 163 182 188 193 235 284 335 347 0 15 30 34 36 31 35 39 45 8 342 325 304 280 278 271
172 177 179 184 204 204 184 177 172 165 175 183 174 171 186 157 165 192 188 198 214 192 190 193 252 311 334 7 23 31 36 30 22 28 35 30 19 2 349 327 291 273 257
177 190 196 194 200 189 180 176 175 172 168 187 194 185 198 189 194 197 197 207 200 178 175 175 212 270 296 329 50 45 25 20 11 18 29 31 28 18 11 359 350 3 245
184 194 197 197 197 194 196 182 193 191 177 184 208 203 203 202 204 205 202 201 189 188 185 191 218 218 244 247 281 299 22 12 358 11 15 12 4 3 1 353 337 338 307
196 192 200 193 209 225 199 190 185 200 195 200 216 235 224 203 212 220 219 212 199 198 202 199 217 225 232 220 204 199 168 68 323 332 347 346 355 346 338 328 316 287 279
206 215 223 207 228 231 196 190 193 207 213 220 221 226 238 227 214 234 247 245 238 226 210 201 215 227 223 207 194 215 219 221 246 251 284 311 329 328 326 331 314 287 271
202 219 226 222 229 240 211 200 191 197 200 220 225 225 232 254 237 213 215 258 277 265 241 226 227 235 232 216 203 207 203 214 284 284 249 276 302 307 329 330 326 299 280
213 225 225 220 229 250 223 205 187 189 197 232 235 223 218 228 227 175 176 217 272 285 271 233 233 243 233 215 188 160 164 176 270 290 245 229 269 304 311 316 336 352 330
209 206 229 242 234 248 231 213 195 186 210 241 256 249 224 219 204 178 186 211 247 271 283 279 271 277 239 202 187 188 190 195 222 260 219 206 229 278 293 297 326 333 335